Weather History for KTBN - November, 2011

Change the Weather History Date:

Wednesday, November 2, 2011

  Actual Average (KVIH) Record (KVIH)
Temperature  
Mean Temperature 59 °F 51 °F  
Max Temperature 72 °F 62 °F 78 °F (1964)
Min Temperature 46 °F 41 °F 16 °F (1951)
Degree Days  
Heating Degree Days 6 14  
Month to date heating degree days 28  
Since 1 July heating degree days 378  
Cooling Degree Days 0 0  
Month to date cooling degree days 0  
Year to date cooling degree days 1243  
Growing Degree Days 9 (Base 50)    
Moisture  
Dew Point 46 °F    
Average Humidity 66    
Maximum Humidity 100    
Minimum Humidity 32    
Precipitation  
Precipitation 0.23 in 0.12 in 1.06 in (1961)
Month to date precipitation 0.24  
Year to date precipitation 37.34  
Sea Level Pressure  
Sea Level Pressure 29.95 in    
Wind  
Wind Speed 10 mph (South)    
Max Wind Speed 18 mph    
Max Gust Speed 28 mph    
Visibility 8 miles    
Events Rain    
T = Trace of Precipitation, MM = Missing Value Source: NWS Daily Summary

Daily Weather History Graph

Daily Weather History Graph

Search for Another Location

Airport or City:

Trip Planner

Search our weather history database for the weather conditions in past years. The results will help you decide how hot, cold, wet, or windy it might be!

Date:

Astronomy

Nov. 02, 2011 Rise Set
Actual Time 7:34 AM CDT 6:09 PM CDT
Civil Twilight 7:07 AM CDT 6:36 PM CDT
Nautical Twilight 6:36 AM CDT 7:07 PM CDT
Astronomical Twilight 6:05 AM CDT 7:37 PM CDT
Moon 1:54 PM CDT (11/2) No Moon Set
Length of Visible Light 11h 28m
Length of Day
10h 34m
Waxing Crescent, 50% of the Moon is Illuminated
Nov 2
Waxing Crescent
Nov 10
Full
Nov 18
Last Quarter
Nov 25
New
Dec 2
First Quarter

Hourly Weather History & Observations

Time (CDT) Temp. Dew Point Humidity Pressure Visibility Wind Dir Wind Speed Gust Speed Precip Events Conditions
12:55 AM 54.5 °F 39.4 °F 57% 30.05 in 10.0 mi SSE 6.9 mph - N/A   Clear
1:55 AM 49.8 °F 39.7 °F 68% 30.07 in 10.0 mi SSE 5.8 mph - N/A   Clear
2:55 AM 49.1 °F 40.1 °F 71% 30.07 in 10.0 mi SE 9.2 mph - N/A   Clear
3:55 AM 46.9 °F 40.1 °F 77% 30.07 in 10.0 mi SE 8.1 mph - N/A   Clear
4:55 AM 48.6 °F 40.3 °F 73% 30.07 in 10.0 mi SSE 9.2 mph - N/A   Clear
5:55 AM 49.5 °F 40.1 °F 70% 30.08 in 10.0 mi SSE 9.2 mph - N/A   Clear
6:55 AM 49.3 °F 40.1 °F 71% 30.07 in 10.0 mi SSE 8.1 mph - N/A   Clear
7:55 AM 50.4 °F 40.5 °F 69% 30.06 in 10.0 mi SSE 9.2 mph - N/A   Clear
8:55 AM 54.7 °F 41.5 °F 61% 30.08 in 10.0 mi SSE 8.1 mph - N/A   Clear
9:55 AM 62.6 °F 43.0 °F 49% 30.07 in 10.0 mi South 10.4 mph 17.3 mph N/A   Clear
10:55 AM 66.9 °F 44.2 °F 44% 30.06 in 10.0 mi South 10.4 mph 18.4 mph N/A   Clear
11:55 AM 70.2 °F 45.0 °F 40% 30.02 in 10.0 mi SSW 9.2 mph 20.7 mph N/A   Partly Cloudy
12:55 PM 71.8 °F 41.2 °F 33% 29.99 in 10.0 mi SSW 10.4 mph 21.9 mph N/A   Partly Cloudy
1:55 PM 72.3 °F 40.5 °F 32% 29.95 in 10.0 mi South 17.3 mph 25.3 mph N/A   Clear
2:55 PM 70.3 °F 41.7 °F 35% 29.94 in 10.0 mi SSW 13.8 mph 23.0 mph N/A   Partly Cloudy
3:55 PM 70.2 °F 44.4 °F 40% 29.94 in 10.0 mi SSW 9.2 mph 20.7 mph N/A   Clear
4:55 PM 69.4 °F 46.6 °F 44% 29.92 in 10.0 mi South 13.8 mph 20.7 mph N/A   Clear
5:55 PM 67.1 °F 46.6 °F 48% 29.93 in 10.0 mi South 10.4 mph - N/A   Clear
6:55 PM 65.7 °F 47.3 °F 51% 29.93 in 10.0 mi South 9.2 mph 18.4 mph N/A   Clear
7:55 PM 64.6 °F 49.1 °F 57% 29.90 in 10.0 mi South 16.1 mph 23.0 mph N/A   Mostly Cloudy
8:55 PM 63.1 °F 50.0 °F 62% 29.84 in 10.0 mi SSE 16.1 mph - N/A   Mostly Cloudy
9:55 PM 62.2 °F 48.0 °F 60% 29.81 in 10.0 mi SSE 18.4 mph 27.6 mph N/A   Overcast
10:55 PM 61.2 °F 49.3 °F 65% 29.79 in 10.0 mi SSE 15.0 mph 24.2 mph N/A   Overcast
11:29 PM 59.0 °F 51.8 °F 77% 29.78 in 9.0 mi South 12.7 mph 25.3 mph N/A Rain Light Rain
11:44 PM 57.2 °F 53.6 °F 88% 29.85 in 2.5 mi WNW 12.7 mph 21.9 mph N/A Rain Rain
11:46 PM 55.4 °F 53.6 °F 94% 29.85 in 1.8 mi WNW 12.7 mph 21.9 mph N/A Rain Heavy Rain
11:47 PM 55.4 °F 53.6 °F 94% 29.85 in 1.5 mi WNW 15.0 mph 23.0 mph N/A Rain Heavy Rain
11:48 PM 55.4 °F 53.6 °F 94% 29.85 in 1.2 mi WNW 13.8 mph 23.0 mph N/A Rain Heavy Rain
11:55 PM 53.1 °F 52.7 °F 99% 29.84 in 1.5 mi WNW 8.1 mph 23.0 mph 0.23 in Rain Heavy Rain
11:56 PM 53.6 °F 51.8 °F 94% 29.84 in 1.8 mi WNW 11.5 mph 23.0 mph N/A Rain Heavy Rain
11:57 PM 53.6 °F 51.8 °F 94% 29.85 in 2.0 mi NW 11.5 mph 23.0 mph N/A Rain Heavy Rain
11:59 PM 51.8 °F 51.8 °F 100% 29.85 in 3.0 mi WNW 9.2 mph 18.4 mph N/A Rain Rain